When you browse on this site, cookies collect data to enhance your experience and personalize the content and advertising you see.
Visit our Privacy Policy to learn more. By continuing to use the site, you agree to this use of cookies and data.
  • In Hungary
  • List of Countries
  • For 7 days
  • Water Temperature
  • Satellite Maps
  • Weather Map
  • News
  • Weather Widgets
  • user-avatar
    Login

    Hourly Weather Edegem

    Today, 17 January, Thursday

    Time Temperature Precipitation Wind Pressure Humidity
    00:00 +5°C° 0 mm 4 mps 751 mmHg 88%
    01:00 +5°C° 0.1 mm 4 mps 751 mmHg 88%
    02:00 +4°C° 0.1 mm 4 mps 751 mmHg 89%
    03:00 +4°C° 0.1 mm 3 mps 750 mmHg 89%
    04:00 +3°C° 0 mm 3 mps 750 mmHg 90%
    05:00 +3°C° 0 mm 3 mps 750 mmHg 91%
    06:00 +2°C° 0 mm 3 mps 750 mmHg 92%
    07:00 +3°C° 0.5 mm 4 mps 750 mmHg 91%
    08:00 +2°C° 0.5 mm 5 mps 750 mmHg 89%
    09:00 +3°C° 0.5 mm 7 mps 750 mmHg 87%
    10:00 +3°C° 0.3 mm 7 mps 751 mmHg 80%
    11:00 +4°C° 0.3 mm 7 mps 751 mmHg 73%
    12:00 +4°C° 0 mm 8 mps 752 mmHg 63%
    13:00 +3°C° 0.1 mm 7 mps 753 mmHg 64%
    14:00 +3°C° 0.1 mm 7 mps 753 mmHg 64%
    15:00 +3°C° 0.1 mm 7 mps 754 mmHg 64%
    16:00 +2°C° 0.3 mm 6 mps 755 mmHg 66%
    17:00 +2°C° 0.3 mm 5 mps 756 mmHg 68%
    18:00 +1°C° 0.3 mm 4 mps 756 mmHg 71%
    19:00 +1°C° 0.1 mm 4 mps 757 mmHg 71%
    20:00 +2°C° 0.1 mm 3 mps 758 mmHg 72%
    21:00 +2°C° 0.1 mm 3 mps 759 mmHg 73%
    22:00 +1°C° 0 mm 3 mps 759 mmHg 74%
    23:00 +2°C° 0 mm 2 mps 760 mmHg 74%

    Tomorrow, 18 January, Friday

    Time Temperature Precipitation Wind Pressure Humidity
    00:00 +2°C° 0 mm 2 mps 760 mmHg 75%
    01:00 +2°C° 0 mm 2 mps 761 mmHg 75%
    02:00 +1°C° 0 mm 2 mps 761 mmHg 76%
    03:00 +1°C° 0 mm 2 mps 761 mmHg 76%
    04:00 +1°C° 0 mm 2 mps 762 mmHg 77%
    05:00 +2°C° 0 mm 1 mps 762 mmHg 78%
    06:00 +2°C° 0 mm 1 mps 762 mmHg 79%
    07:00 +2°C° 0 mm 1 mps 763 mmHg 79%
    08:00 +2°C° 0 mm 1 mps 763 mmHg 79%
    09:00 +1°C° 0 mm 2 mps 763 mmHg 79%
    10:00 +2°C° 0 mm 2 mps 763 mmHg 76%
    11:00 +3°C° 0 mm 2 mps 763 mmHg 74%
    12:00 +4°C° 0 mm 2 mps 763 mmHg 71%
    13:00 +4°C° 0 mm 2 mps 763 mmHg 73%
    14:00 +4°C° 0 mm 2 mps 763 mmHg 75%
    15:00 +4°C° 0 mm 2 mps 762 mmHg 77%
    16:00 +3°C° 0 mm 2 mps 762 mmHg 78%
    17:00 +2°C° 0 mm 2 mps 763 mmHg 80%
    18:00 +2°C° 0 mm 2 mps 763 mmHg 82%
    19:00 +1°C° 0 mm 2 mps 763 mmHg 81%
    20:00 +1°C° 0 mm 2 mps 763 mmHg 81%
    21:00 +1°C° 0 mm 2 mps 763 mmHg 81%
    22:00 +1°C° 0 mm 2 mps 762 mmHg 82%
    23:00 -1°C° 0 mm 2 mps 762 mmHg 82%

    Day after tomorrow, 19 January, Saturday

    Time Temperature Precipitation Wind Pressure Humidity
    00:00 -1°C° 0 mm 2 mps 762 mmHg 83%
    01:00 -1°C° 0 mm 3 mps 762 mmHg 81%
    02:00 -1°C° 0 mm 3 mps 762 mmHg 80%
    03:00 -1°C° 0 mm 3 mps 761 mmHg 78%
    04:00 -2°C° 0 mm 3 mps 761 mmHg 78%
    05:00 -2°C° 0 mm 3 mps 760 mmHg 77%
    06:00 -2°C° 0 mm 3 mps 760 mmHg 76%
    07:00 -2°C° 0 mm 3 mps 760 mmHg 74%
    08:00 -1°C° 0 mm 3 mps 760 mmHg 73%
    09:00 -2°C° 0 mm 4 mps 760 mmHg 71%
    10:00 -1°C° 0 mm 4 mps 759 mmHg 67%
    11:00 0°C° 0 mm 4 mps 759 mmHg 62%
    12:00 +2°C° 0 mm 3 mps 759 mmHg 58%
    13:00 +2°C° 0 mm 3 mps 758 mmHg 59%
    14:00 +2°C° 0 mm 3 mps 758 mmHg 60%
    15:00 +3°C° 0 mm 2 mps 757 mmHg 61%
    16:00 +1°C° 0 mm 3 mps 757 mmHg 64%
    17:00 0°C° 0 mm 3 mps 757 mmHg 67%
    18:00 -1°C° 0 mm 3 mps 757 mmHg 70%
    19:00 -1°C° 0 mm 3 mps 757 mmHg 71%
    20:00 -1°C° 0 mm 3 mps 758 mmHg 72%
    21:00 -2°C° 0 mm 3 mps 758 mmHg 73%
    22:00 -2°C° 0 mm 2 mps 758 mmHg 74%
    23:00 -2°C° 0 mm 2 mps 758 mmHg 75%

    20 January, Sunday

    Time Temperature Precipitation Wind Pressure Humidity
    00:00 -2°C° 0 mm 2 mps 758 mmHg 76%
    01:00 -2°C° 0 mm 2 mps 758 mmHg 76%
    02:00 -2°C° 0 mm 2 mps 758 mmHg 76%
    03:00 -2°C° 0 mm 2 mps 758 mmHg 76%
    04:00 -3°C° 0 mm 2 mps 758 mmHg 75%
    05:00 -3°C° 0 mm 2 mps 758 mmHg 75%
    06:00 -3°C° 0 mm 2 mps 758 mmHg 74%
    07:00 -2°C° 0 mm 2 mps 759 mmHg 72%
    08:00 -2°C° 0 mm 2 mps 759 mmHg 70%
    09:00 -2°C° 0 mm 2 mps 759 mmHg 68%
    10:00 -1°C° 0 mm 2 mps 760 mmHg 63%
    11:00 +1°C° 0 mm 2 mps 760 mmHg 58%
    12:00 +2°C° 0 mm 2 mps 760 mmHg 53%
    13:00 +2°C° 0 mm 2 mps 760 mmHg 54%
    14:00 +2°C° 0 mm 2 mps 761 mmHg 56%
    15:00 +2°C° 0 mm 2 mps 761 mmHg 57%
    16:00 +2°C° 0 mm 1 mps 761 mmHg 60%
    17:00 +1°C° 0 mm 1 mps 762 mmHg 64%
    18:00 0°C° 0 mm 1 mps 763 mmHg 67%
    19:00 0°C° 0 mm 1 mps 763 mmHg 67%
    20:00 0°C° 0 mm 1 mps 764 mmHg 67%
    21:00 0°C° 0 mm 1 mps 764 mmHg 68%
    22:00 0°C° 0 mm 1 mps 765 mmHg 67%
    23:00 0°C° 0 mm 1 mps 765 mmHg 66%

    21 January, Monday

    Time Temperature Precipitation Wind Pressure Humidity
    00:00 0°C° 0 mm 1 mps 765 mmHg 65%
    01:00 -1°C° 0 mm 1 mps 765 mmHg 65%
    02:00 -1°C° 0 mm 1 mps 766 mmHg 64%
    03:00 -1°C° 0 mm 1 mps 766 mmHg 63%
    04:00 -2°C° 0 mm 0 mps 766 mmHg 63%
    05:00 -2°C° 0 mm 0 mps 766 mmHg 62%
    06:00 -2°C° 0 mm 0 mps 766 mmHg 62%
    07:00 -2°C° 0 mm 0 mps 766 mmHg 60%
    08:00 -1°C° 0 mm 0 mps 767 mmHg 58%
    09:00 -1°C° 0 mm 0 mps 767 mmHg 57%
    10:00 +1°C° 0 mm 1 mps 767 mmHg 54%
    11:00 +2°C° 0 mm 1 mps 766 mmHg 50%
    12:00 +3°C° 0 mm 1 mps 766 mmHg 47%
    13:00 +3°C° 0 mm 1 mps 766 mmHg 50%
    14:00 +3°C° 0 mm 1 mps 765 mmHg 53%
    15:00 +3°C° 0 mm 1 mps 765 mmHg 57%
    16:00 +1°C° 0 mm 2 mps 765 mmHg 60%
    17:00 -1°C° 0 mm 2 mps 764 mmHg 63%
    18:00 -2°C° 0 mm 2 mps 764 mmHg 66%
    19:00 -2°C° 0 mm 2 mps 764 mmHg 68%
    20:00 -1°C° 0 mm 3 mps 763 mmHg 69%
    21:00 -1°C° 0 mm 3 mps 763 mmHg 70%
    22:00 -1°C° 0 mm 3 mps 762 mmHg 72%
    23:00 -1°C° 0 mm 3 mps 761 mmHg 73%

    22 January, Tuesday

    Time Temperature Precipitation Wind Pressure Humidity
    00:00 -2°C° 0 mm 4 mps 761 mmHg 74%
    01:00 -2°C° 0 mm 4 mps 760 mmHg 73%
    02:00 -2°C° 0 mm 4 mps 759 mmHg 72%
    03:00 -3°C° 0 mm 4 mps 757 mmHg 71%
    04:00 -4°C° 0 mm 5 mps 756 mmHg 68%
    05:00 -2°C° 0 mm 5 mps 755 mmHg 65%
    06:00 -2°C° 0 mm 5 mps 754 mmHg 62%
    07:00 -2°C° 0 mm 5 mps 753 mmHg 62%
    08:00 -3°C° 0 mm 6 mps 753 mmHg 63%
    09:00 -2°C° 0 mm 6 mps 752 mmHg 63%
    10:00 -2°C° 0.2 mm 6 mps 751 mmHg 64%
    11:00 -1°C° 0.2 mm 6 mps 751 mmHg 65%
    12:00 -1°C° 0.2 mm 6 mps 750 mmHg 66%
    13:00 0°C° 0.4 mm 5 mps 749 mmHg 70%
    14:00 0°C° 0.4 mm 5 mps 749 mmHg 74%
    15:00 0°C° 0.4 mm 4 mps 749 mmHg 78%
    16:00 -1°C° 0.1 mm 4 mps 749 mmHg 79%
    17:00 -1°C° 0.1 mm 4 mps 749 mmHg 81%
    18:00 -1°C° 0.1 mm 4 mps 749 mmHg 83%
    19:00 -1°C° 0 mm 4 mps 749 mmHg 86%
    20:00 -2°C° 0 mm 4 mps 749 mmHg 88%
    21:00 -2°C° 0 mm 4 mps 749 mmHg 91%
    22:00 -1°C° 0 mm 3 mps 749 mmHg 92%
    23:00 0°C° 0 mm 3 mps 749 mmHg 93%
    Show more